STARLINK-1661 (46355 NORAD) Tracking and Keplerian Element Data

This shows tracking and keplerian element data for the satellite.

Feedback or suggestion? Click here.




ElementValue
Catalog46355
NameSTARLINK-1661
Epoch Orbit177
Epoch Day267.58334491
Epoch Year2020
RAAN331.0497
Inclination53.0021
Eccentricity0.0001366
Argument of Perigee66.9971
Mean Anonmoly184.6963
Mean Motion15.62749368
Decay Rate0.00042655
L11 46355U 20062AG 20267.58334491 .00042655 00000-0 46928-3 0 9991
L22 46355 53.0021 331.0497 0001366 66.9971 184.6963 15.62749368 1770

Live tracking and technical data element details for STARLINK-1661 (NORAD 46355). STARLINK-1661 can be tracked NOW for your location showing map with azimuth and elevation plus other details from your city location.

Track the satellite on the map from your city or location and see movement details for azimuth, elevation, latitude, longitude, range, height, and movement on the map or in text.







IsCatalogInMostPopularTable: catalog: 46355, numindb: 8
Update: records affected: 1



GetName: 46355 STARLINK-1661

Hit Count: updated at: Thu, 24 Sep 2020 18:49:36 GMT